Precipitable_Water
0.95 0.95 0.94 0.92 0.88 0.86 0.84 0.82 0.78 0.76 0.74 0.74 0.72 0.70 0.72 0.70 0.70 0.66 0.64 0.64 0.64 0.64 0.64 0.62 0.60 0.56 0.50 0.50 0.48 0.48 0.48 0.46 0.46 0.46 0.44 0.44 0.42 0.42 0.42 0.40 0.40 0.38 0.38 0.36 0.36 0.36 0.36 0.34 0.34 0.34 0.31 0.32 0.32 0.34 0.32 0.32 0.34 0.34 0.32 0.34 0.34 0.34 0.36 0.38 0.38 0.38 0.40 0.38 0.40 0.42 0.44 0.40 0.40 0.40 0.38 0.40 0.42 0.42 0.40 0.42 0.40 0.40 0.40 0.38 0.40 0.40
0.94 0.94 0.88 0.86 0.84 0.82 0.80 0.78 0.76 0.74 0.72 0.70 0.70 0.70 0.68 0.66 0.64 0.64 0.62 0.64 0.64 0.64 0.60 0.56 0.54 0.50 0.46 0.46 0.46 0.46 0.46 0.44 0.44 0.44 0.44 0.42 0.40 0.40 0.40 0.38 0.36 0.36 0.36 0.34 0.32 0.32 0.32 0.31 0.31 0.31 0.29 0.29 0.29 0.29 0.27 0.27 0.29 0.29 0.27 0.29 0.29 0.29 0.31 0.32 0.32 0.34 0.36 0.34 0.34 0.36 0.38 0.36 0.36 0.36 0.34 0.36 0.36 0.38 0.36 0.38 0.36 0.36 0.36 0.36 0.36 0.38
0.90 0.88 0.82 0.82 0.80 0.78 0.76 0.74 0.72 0.72 0.70 0.70 0.68 0.68 0.66 0.62 0.62 0.62 0.62 0.64 0.66 0.64 0.58 0.54 0.50 0.46 0.44 0.44 0.46 0.44 0.44 0.44 0.42 0.42 0.42 0.40 0.38 0.38 0.36 0.34 0.32 0.32 0.32 0.31 0.31 0.31 0.31 0.29 0.29 0.29 0.27 0.27 0.27 0.27 0.25 0.25 0.25 0.25 0.25 0.25 0.25 0.25 0.25 0.27 0.29 0.29 0.31 0.31 0.31 0.32 0.32 0.32 0.32 0.32 0.32 0.32 0.34 0.34 0.34 0.34 0.34 0.34 0.34 0.34 0.34 0.34
0.84 0.82 0.78 0.78 0.76 0.74 0.72 0.70 0.70 0.70 0.70 0.70 0.68 0.66 0.64 0.62 0.60 0.60 0.64 0.64 0.64 0.58 0.50 0.46 0.44 0.42 0.40 0.42 0.42 0.44 0.44 0.42 0.40 0.40 0.40 0.36 0.36 0.34 0.34 0.32 0.31 0.31 0.31 0.29 0.29 0.29 0.29 0.27 0.27 0.27 0.27 0.27 0.27 0.27 0.25 0.25 0.25 0.25 0.25 0.25 0.23 0.23 0.23 0.25 0.25 0.25 0.27 0.29 0.29 0.29 0.29 0.31 0.31 0.31 0.31 0.31 0.32 0.32 0.32 0.32 0.32 0.32 0.32 0.32 0.32 0.32
0.78 0.76 0.74 0.72 0.72 0.70 0.70 0.70 0.70 0.70 0.70 0.68 0.66 0.62 0.60 0.60 0.60 0.62 0.64 0.62 0.60 0.54 0.44 0.42 0.40 0.38 0.36 0.38 0.40 0.40 0.42 0.40 0.38 0.38 0.36 0.32 0.32 0.31 0.31 0.29 0.29 0.29 0.29 0.27 0.27 0.27 0.27 0.27 0.27 0.27 0.27 0.27 0.27 0.27 0.25 0.25 0.25 0.25 0.25 0.25 0.23 0.23 0.23 0.23 0.23 0.23 0.25 0.27 0.27 0.27 0.29 0.27 0.29 0.29 0.31 0.29 0.31 0.31 0.31 0.31 0.31 0.31 0.32 0.32 0.32 0.32
0.74 0.74 0.72 0.70 0.68 0.68 0.68 0.70 0.70 0.70 0.70 0.66 0.62 0.60 0.60 0.60 0.60 0.60 0.60 0.58 0.54 0.50 0.42 0.38 0.38 0.36 0.34 0.36 0.38 0.38 0.38 0.36 0.34 0.34 0.34 0.31 0.29 0.29 0.29 0.27 0.27 0.27 0.27 0.27 0.27 0.27 0.27 0.27 0.25 0.25 0.25 0.25 0.25 0.25 0.25 0.25 0.25 0.25 0.25 0.25 0.23 0.23 0.23 0.23 0.23 0.23 0.23 0.25 0.25 0.25 0.27 0.27 0.27 0.27 0.29 0.29 0.29 0.29 0.29 0.31 0.31 0.31 0.31 0.31 0.31 0.32
0.70 0.70 0.70 0.68 0.68 0.68 0.68 0.68 0.68 0.68 0.66 0.64 0.60 0.60 0.60 0.62 0.58 0.54 0.52 0.48 0.46 0.42 0.38 0.36 0.36 0.34 0.32 0.34 0.34 0.36 0.36 0.32 0.31 0.31 0.31 0.27 0.27 0.27 0.27 0.25 0.25 0.25 0.25 0.25 0.25 0.27 0.27 0.25 0.25 0.25 0.25 0.25 0.25 0.25 0.25 0.25 0.25 0.23 0.23 0.23 0.23 0.23 0.23 0.23 0.23 0.23 0.23 0.23 0.25 0.25 0.25 0.27 0.27 0.27 0.27 0.27 0.29 0.29 0.29 0.29 0.29 0.29 0.31 0.31 0.31 0.32
0.68 0.68 0.68 0.68 0.68 0.68 0.68 0.68 0.66 0.64 0.62 0.60 0.60 0.60 0.60 0.60 0.54 0.48 0.44 0.42 0.40 0.38 0.34 0.32 0.32 0.32 0.32 0.32 0.32 0.32 0.32 0.29 0.29 0.27 0.27 0.25 0.25 0.25 0.25 0.25 0.25 0.25 0.25 0.25 0.25 0.25 0.25 0.25 0.23 0.23 0.25 0.25 0.25 0.25 0.23 0.23 0.23 0.23 0.23 0.23 0.23 0.23 0.23 0.23 0.23 0.23 0.25 0.25 0.25 0.27 0.27 0.27 0.29 0.29 0.29 0.29 0.29 0.29 0.29 0.29 0.29 0.29 0.29 0.31 0.31 0.31
0.66 0.66 0.66 0.66 0.66 0.66 0.66 0.64 0.62 0.62 0.60 0.60 0.60 0.58 0.54 0.52 0.44 0.38 0.38 0.36 0.36 0.34 0.31 0.31 0.31 0.31 0.31 0.31 0.31 0.31 0.31 0.27 0.25 0.25 0.25 0.25 0.23 0.23 0.23 0.23 0.23 0.23 0.25 0.25 0.25 0.25 0.25 0.23 0.23 0.23 0.25 0.25 0.25 0.25 0.23 0.23 0.23 0.23 0.23 0.23 0.23 0.23 0.23 0.23 0.23 0.23 0.25 0.25 0.25 0.27 0.27 0.27 0.29 0.29 0.29 0.29 0.29 0.29 0.29 0.29 0.29 0.29 0.29 0.31 0.31 0.31
0.68 0.66 0.66 0.66 0.66 0.66 0.62 0.60 0.60 0.62 0.62 0.62 0.60 0.56 0.52 0.44 0.36 0.31 0.31 0.31 0.31 0.31 0.29 0.29 0.29 0.29 0.27 0.27 0.27 0.27 0.27 0.25 0.25 0.25 0.25 0.25 0.23 0.23 0.23 0.23 0.23 0.23 0.23 0.25 0.25 0.23 0.23 0.23 0.23 0.25 0.25 0.25 0.25 0.25 0.23 0.23 0.23 0.23 0.25 0.25 0.23 0.23 0.25 0.23 0.25 0.25 0.25 0.25 0.25 0.25 0.27 0.27 0.27 0.29 0.29 0.29 0.29 0.31 0.29 0.29 0.29 0.29 0.31 0.31 0.31 0.31
0.66 0.66 0.66 0.66 0.64 0.64 0.60 0.60 0.60 0.62 0.62 0.62 0.56 0.48 0.46 0.40 0.34 0.29 0.27 0.27 0.29 0.29 0.27 0.27 0.27 0.27 0.25 0.25 0.25 0.25 0.25 0.23 0.23 0.23 0.25 0.23 0.23 0.23 0.23 0.23 0.23 0.23 0.23 0.23 0.23 0.23 0.23 0.23 0.23 0.25 0.25 0.25 0.25 0.25 0.23 0.23 0.23 0.25 0.25 0.25 0.25 0.25 0.27 0.25 0.25 0.25 0.25 0.25 0.25 0.27 0.27 0.27 0.27 0.27 0.29 0.29 0.29 0.29 0.31 0.31 0.31 0.31 0.31 0.31 0.31 0.32
0.66 0.64 0.64 0.64 0.62 0.62 0.60 0.60 0.60 0.58 0.56 0.54 0.46 0.38 0.36 0.34 0.32 0.29 0.27 0.25 0.25 0.25 0.25 0.25 0.25 0.25 0.23 0.23 0.23 0.23 0.23 0.23 0.23 0.23 0.23 0.23 0.23 0.23 0.23 0.21 0.21 0.23 0.23 0.23 0.23 0.23 0.23 0.23 0.23 0.25 0.25 0.25 0.25 0.25 0.25 0.25 0.25 0.25 0.25 0.25 0.25 0.27 0.27 0.27 0.27 0.27 0.29 0.27 0.29 0.29 0.29 0.27 0.29 0.29 0.29 0.31 0.31 0.31 0.31 0.31 0.31 0.32 0.32 0.31 0.32 0.32
0.64 0.64 0.62 0.62 0.60 0.60 0.60 0.56 0.54 0.52 0.50 0.40 0.34 0.31 0.29 0.29 0.29 0.27 0.27 0.25 0.25 0.25 0.25 0.25 0.25 0.23 0.23 0.23 0.23 0.23 0.23 0.23 0.23 0.23 0.23 0.21 0.21 0.21 0.21 0.21 0.21 0.21 0.21 0.21 0.21 0.21 0.23 0.23 0.23 0.23 0.25 0.25 0.25 0.25 0.25 0.25 0.25 0.27 0.27 0.27 0.27 0.27 0.27 0.27 0.27 0.29 0.29 0.29 0.31 0.31 0.31 0.31 0.31 0.32 0.31 0.32 0.32 0.32 0.32 0.32 0.32 0.32 0.32 0.32 0.32 0.34
0.64 0.62 0.60 0.60 0.58 0.56 0.52 0.48 0.44 0.42 0.38 0.32 0.31 0.29 0.29 0.29 0.27 0.25 0.25 0.25 0.25 0.25 0.23 0.23 0.23 0.23 0.23 0.23 0.23 0.23 0.23 0.23 0.23 0.21 0.21 0.21 0.21 0.21 0.21 0.21 0.21 0.21 0.21 0.21 0.21 0.21 0.23 0.23 0.23 0.23 0.25 0.25 0.25 0.25 0.25 0.27 0.27 0.27 0.29 0.29 0.29 0.29 0.29 0.29 0.29 0.29 0.31 0.31 0.31 0.32 0.32 0.32 0.32 0.32 0.32 0.32 0.32 0.32 0.32 0.34 0.34 0.34 0.34 0.34 0.34 0.34
0.62 0.60 0.58 0.56 0.54 0.50 0.42 0.38 0.36 0.34 0.32 0.29 0.29 0.27 0.27 0.27 0.27 0.25 0.25 0.23 0.23 0.23 0.23 0.21 0.21 0.23 0.23 0.23 0.25 0.25 0.23 0.23 0.21 0.21 0.21 0.21 0.21 0.21 0.21 0.21 0.21 0.21 0.21 0.21 0.23 0.23 0.23 0.23 0.23 0.23 0.25 0.25 0.25 0.25 0.27 0.29 0.29 0.29 0.31 0.31 0.31 0.31 0.31 0.31 0.31 0.31 0.31 0.31 0.32 0.32 0.32 0.34 0.34 0.34 0.34 0.34 0.34 0.34 0.34 0.34 0.34 0.34 0.36 0.36 0.34 0.34
0.58 0.54 0.52 0.50 0.48 0.44 0.36 0.34 0.32 0.31 0.29 0.27 0.27 0.27 0.25 0.25 0.25 0.23 0.23 0.21 0.21 0.21 0.21 0.21 0.19 0.21 0.21 0.23 0.25 0.23 0.23 0.21 0.21 0.21 0.21 0.21 0.21 0.23 0.23 0.21 0.21 0.21 0.21 0.23 0.23 0.23 0.25 0.25 0.25 0.25 0.25 0.25 0.27 0.29 0.29 0.29 0.31 0.31 0.31 0.31 0.31 0.31 0.31 0.31 0.31 0.32 0.32 0.32 0.32 0.34 0.34 0.34 0.34 0.36 0.36 0.36 0.36 0.36 0.34 0.36 0.36 0.36 0.36 0.36 0.36 0.36
0.52 0.46 0.44 0.40 0.38 0.36 0.31 0.31 0.29 0.29 0.27 0.25 0.25 0.25 0.25 0.23 0.23 0.23 0.21 0.21 0.21 0.21 0.19 0.19 0.19 0.17 0.17 0.19 0.21 0.23 0.23 0.21 0.21 0.21 0.21 0.21 0.21 0.23 0.23 0.21 0.21 0.21 0.21 0.23 0.23 0.23 0.25 0.25 0.25 0.25 0.25 0.27 0.27 0.29 0.29 0.31 0.31 0.31 0.31 0.32 0.32 0.32 0.32 0.32 0.32 0.32 0.34 0.34 0.34 0.34 0.34 0.34 0.34 0.36 0.36 0.36 0.36 0.36 0.36 0.36 0.36 0.36 0.36 0.36 0.36 0.36
0.48 0.40 0.34 0.32 0.32 0.31 0.27 0.27 0.25 0.25 0.25 0.25 0.23 0.23 0.23 0.23 0.23 0.23 0.21 0.21 0.21 0.21 0.19 0.19 0.17 0.17 0.15 0.17 0.19 0.21 0.23 0.23 0.21 0.21 0.21 0.21 0.21 0.21 0.23 0.23 0.23 0.23 0.23 0.23 0.25 0.25 0.25 0.25 0.25 0.27 0.27 0.29 0.29 0.29 0.29 0.31 0.32 0.32 0.32 0.32 0.32 0.32 0.34 0.34 0.34 0.34 0.34 0.34 0.34 0.34 0.36 0.36 0.36 0.36 0.36 0.36 0.38 0.38 0.38 0.38 0.38 0.38 0.38 0.38 0.38 0.36
0.38 0.32 0.31 0.31 0.29 0.27 0.25 0.23 0.23 0.23 0.23 0.23 0.23 0.23 0.23 0.23 0.23 0.23 0.21 0.21 0.21 0.21 0.19 0.17 0.17 0.17 0.17 0.17 0.19 0.21 0.23 0.23 0.21 0.21 0.21 0.21 0.21 0.21 0.23 0.23 0.23 0.23 0.23 0.23 0.23 0.25 0.25 0.27 0.27 0.27 0.27 0.29 0.31 0.31 0.31 0.32 0.32 0.32 0.32 0.32 0.32 0.34 0.34 0.36 0.36 0.36 0.36 0.36 0.36 0.36 0.36 0.36 0.36 0.36 0.36 0.38 0.38 0.38 0.38 0.38 0.38 0.38 0.38 0.38 0.38 0.38
0.32 0.29 0.27 0.27 0.25 0.25 0.23 0.23 0.23 0.23 0.23 0.23 0.23 0.23 0.21 0.21 0.21 0.21 0.21 0.21 0.21 0.21 0.19 0.19 0.17 0.17 0.19 0.19 0.21 0.23 0.25 0.23 0.21 0.21 0.19 0.21 0.21 0.23 0.23 0.23 0.23 0.23 0.23 0.23 0.25 0.25 0.27 0.27 0.27 0.29 0.29 0.29 0.31 0.32 0.32 0.32 0.34 0.32 0.32 0.34 0.34 0.34 0.36 0.36 0.36 0.36 0.38 0.38 0.38 0.38 0.38 0.38 0.38 0.38 0.38 0.38 0.38 0.38 0.38 0.38 0.38 0.38 0.38 0.38 0.38 0.38
0.27 0.25 0.25 0.25 0.25 0.23 0.21 0.23 0.23 0.23 0.25 0.25 0.23 0.23 0.21 0.21 0.21 0.21 0.21 0.21 0.19 0.19 0.19 0.19 0.19 0.19 0.21 0.21 0.21 0.23 0.23 0.25 0.23 0.21 0.21 0.21 0.21 0.23 0.23 0.23 0.23 0.23 0.23 0.25 0.27 0.27 0.27 0.29 0.29 0.29 0.29 0.31 0.32 0.34 0.34 0.34 0.34 0.34 0.34 0.34 0.36 0.36 0.36 0.36 0.36 0.36 0.38 0.38 0.38 0.38 0.38 0.40 0.40 0.40 0.38 0.38 0.38 0.38 0.38 0.38 0.38 0.38 0.38 0.38 0.38 0.38
0.27 0.25 0.25 0.25 0.23 0.23 0.23 0.23 0.25 0.25 0.25 0.25 0.23 0.23 0.21 0.21 0.21 0.19 0.19 0.19 0.19 0.19 0.19 0.19 0.19 0.21 0.23 0.23 0.23 0.25 0.25 0.25 0.23 0.21 0.21 0.21 0.21 0.21 0.23 0.25 0.25 0.25 0.23 0.25 0.25 0.27 0.29 0.29 0.29 0.31 0.31 0.32 0.34 0.34 0.34 0.34 0.34 0.34 0.34 0.36 0.36 0.36 0.36 0.36 0.38 0.38 0.38 0.38 0.38 0.38 0.38 0.40 0.40 0.40 0.40 0.40 0.40 0.40 0.38 0.40 0.40 0.38 0.38 0.38 0.38 0.38
0.25 0.23 0.23 0.23 0.23 0.23 0.25 0.25 0.25 0.27 0.27 0.25 0.25 0.23 0.23 0.21 0.21 0.21 0.21 0.21 0.21 0.21 0.21 0.21 0.21 0.23 0.23 0.23 0.25 0.25 0.25 0.25 0.25 0.23 0.23 0.21 0.21 0.23 0.25 0.25 0.25 0.25 0.25 0.27 0.27 0.29 0.29 0.29 0.31 0.31 0.31 0.34 0.34 0.36 0.34 0.36 0.36 0.36 0.36 0.38 0.38 0.38 0.38 0.38 0.38 0.38 0.38 0.38 0.38 0.38 0.38 0.38 0.38 0.38 0.40 0.40 0.40 0.40 0.40 0.40 0.40 0.40 0.38 0.38 0.38 0.38
0.23 0.23 0.23 0.23 0.25 0.25 0.25 0.25 0.25 0.27 0.27 0.25 0.25 0.25 0.25 0.23 0.23 0.23 0.23 0.23 0.23 0.23 0.23 0.23 0.23 0.23 0.23 0.23 0.23 0.25 0.25 0.27 0.27 0.25 0.25 0.23 0.23 0.23 0.25 0.25 0.25 0.25 0.25 0.27 0.29 0.29 0.29 0.31 0.31 0.32 0.32 0.34 0.36 0.36 0.36 0.36 0.38 0.38 0.38 0.38 0.38 0.38 0.38 0.38 0.38 0.38 0.40 0.38 0.38 0.38 0.38 0.38 0.38 0.38 0.38 0.38 0.38 0.38 0.38 0.38 0.38 0.38 0.38 0.38 0.38 0.38
0.25 0.25 0.25 0.25 0.25 0.25 0.27 0.27 0.27 0.27 0.27 0.27 0.27 0.27 0.25 0.25 0.25 0.25 0.25 0.25 0.25 0.23 0.23 0.23 0.21 0.21 0.21 0.23 0.23 0.25 0.27 0.27 0.27 0.27 0.25 0.23 0.23 0.23 0.25 0.27 0.27 0.25 0.25 0.27 0.29 0.29 0.29 0.31 0.32 0.32 0.34 0.34 0.36 0.36 0.36 0.36 0.38 0.38 0.38 0.38 0.38 0.38 0.40 0.40 0.40 0.40 0.40 0.40 0.40 0.40 0.40 0.38 0.38 0.38 0.38 0.38 0.38 0.38 0.38 0.38 0.38 0.38 0.38 0.38 0.38 0.38
0.25 0.25 0.27 0.27 0.27 0.27 0.29 0.29 0.27 0.27 0.27 0.27 0.27 0.27 0.27 0.27 0.27 0.25 0.25 0.25 0.23 0.23 0.21 0.21 0.21 0.21 0.23 0.23 0.23 0.25 0.27 0.27 0.27 0.27 0.25 0.25 0.25 0.25 0.25 0.27 0.27 0.27 0.27 0.29 0.29 0.31 0.31 0.31 0.31 0.32 0.32 0.34 0.34 0.36 0.36 0.36 0.36 0.36 0.38 0.38 0.38 0.38 0.40 0.40 0.40 0.40 0.40 0.40 0.40 0.40 0.40 0.40 0.40 0.38 0.38 0.38 0.38 0.38 0.36 0.36 0.36 0.36 0.38 0.36 0.38 0.38
0.27 0.27 0.29 0.29 0.29 0.29 0.29 0.29 0.29 0.29 0.29 0.29 0.29 0.27 0.27 0.27 0.25 0.23 0.23 0.23 0.23 0.23 0.21 0.21 0.21 0.21 0.21 0.23 0.23 0.23 0.25 0.27 0.27 0.27 0.27 0.25 0.25 0.25 0.25 0.27 0.29 0.29 0.27 0.29 0.29 0.31 0.31 0.31 0.32 0.32 0.32 0.34 0.34 0.36 0.36 0.36 0.36 0.36 0.38 0.38 0.38 0.38 0.40 0.40 0.40 0.40 0.40 0.40 0.40 0.40 0.38 0.38 0.38 0.38 0.38 0.38 0.38 0.38 0.36 0.36 0.36 0.36 0.36 0.36 0.36 0.36
0.31 0.31 0.31 0.31 0.31 0.31 0.31 0.31 0.31 0.31 0.29 0.31 0.29 0.29 0.29 0.27 0.25 0.23 0.23 0.23 0.23 0.23 0.23 0.21 0.21 0.21 0.21 0.23 0.23 0.25 0.25 0.27 0.27 0.29 0.29 0.27 0.25 0.25 0.25 0.27 0.29 0.29 0.29 0.29 0.29 0.31 0.32 0.32 0.32 0.32 0.34 0.34 0.34 0.36 0.36 0.36 0.36 0.36 0.38 0.38 0.38 0.40 0.40 0.40 0.40 0.40 0.40 0.38 0.38 0.38 0.38 0.38 0.38 0.38 0.38 0.38 0.38 0.38 0.38 0.36 0.36 0.36 0.36 0.36 0.34 0.34
0.32 0.32 0.32 0.32 0.32 0.32 0.32 0.32 0.31 0.31 0.31 0.31 0.31 0.31 0.31 0.29 0.27 0.25 0.25 0.25 0.25 0.25 0.23 0.23 0.23 0.23 0.23 0.23 0.25 0.25 0.25 0.27 0.27 0.29 0.29 0.27 0.25 0.25 0.27 0.29 0.29 0.29 0.29 0.29 0.29 0.31 0.32 0.32 0.32 0.34 0.34 0.34 0.36 0.36 0.36 0.36 0.36 0.38 0.38 0.38 0.38 0.38 0.40 0.40 0.38 0.38 0.38 0.38 0.38 0.38 0.36 0.36 0.38 0.38 0.38 0.38 0.38 0.38 0.38 0.38 0.36 0.36 0.36 0.34 0.32 0.32
0.31 0.31 0.32 0.32 0.32 0.31 0.31 0.31 0.31 0.31 0.31 0.32 0.32 0.32 0.31 0.31 0.29 0.29 0.27 0.27 0.27 0.25 0.25 0.23 0.23 0.23 0.25 0.25 0.25 0.25 0.23 0.25 0.27 0.29 0.29 0.27 0.27 0.27 0.29 0.29 0.29 0.29 0.29 0.29 0.29 0.29 0.31 0.32 0.34 0.34 0.34 0.36 0.36 0.36 0.36 0.36 0.36 0.38 0.38 0.38 0.38 0.38 0.38 0.38 0.38 0.38 0.38 0.36 0.36 0.36 0.36 0.36 0.36 0.36 0.36 0.36 0.36 0.36 0.36 0.36 0.36 0.34 0.34 0.32 0.31 0.31
0.29 0.31 0.31 0.31 0.31 0.31 0.31 0.31 0.31 0.31 0.31 0.31 0.32 0.31 0.31 0.31 0.29 0.29 0.29 0.27 0.27 0.25 0.25 0.25 0.25 0.25 0.25 0.25 0.23 0.23 0.23 0.25 0.27 0.31 0.31 0.29 0.27 0.27 0.29 0.29 0.29 0.29 0.31 0.29 0.29 0.27 0.29 0.31 0.32 0.34 0.34 0.34 0.34 0.36 0.36 0.36 0.36 0.36 0.38 0.36 0.36 0.36 0.38 0.36 0.36 0.36 0.36 0.36 0.36 0.36 0.36 0.36 0.36 0.36 0.36 0.36 0.36 0.36 0.34 0.34 0.34 0.32 0.32 0.31 0.29 0.29
0.31 0.31 0.31 0.31 0.31 0.31 0.31 0.31 0.31 0.31 0.31 0.31 0.31 0.31 0.31 0.31 0.29 0.29 0.29 0.27 0.27 0.27 0.25 0.25 0.25 0.25 0.25 0.25 0.23 0.23 0.25 0.27 0.31 0.31 0.31 0.29 0.29 0.29 0.29 0.29 0.29 0.29 0.31 0.31 0.29 0.29 0.27 0.27 0.29 0.32 0.34 0.34 0.34 0.34 0.36 0.36 0.36 0.36 0.36 0.36 0.34 0.36 0.36 0.36 0.36 0.36 0.36 0.34 0.36 0.36 0.36 0.36 0.36 0.36 0.34 0.36 0.36 0.34 0.32 0.32 0.32 0.31 0.31 0.29 0.29 0.27
0.31 0.31 0.31 0.31 0.31 0.31 0.31 0.31 0.31 0.31 0.31 0.31 0.31 0.31 0.31 0.31 0.29 0.29 0.29 0.29 0.27 0.27 0.27 0.25 0.25 0.25 0.25 0.25 0.25 0.25 0.27 0.29 0.31 0.31 0.32 0.31 0.29 0.29 0.29 0.29 0.29 0.29 0.31 0.31 0.29 0.29 0.27 0.29 0.29 0.31 0.32 0.32 0.34 0.34 0.34 0.36 0.36 0.36 0.36 0.34 0.34 0.34 0.34 0.34 0.34 0.34 0.34 0.34 0.34 0.34 0.34 0.34 0.34 0.34 0.34 0.34 0.34 0.32 0.32 0.31 0.31 0.31 0.31 0.29 0.29 0.27
0.31 0.31 0.31 0.31 0.31 0.32 0.32 0.32 0.32 0.32 0.31 0.31 0.31 0.31 0.31 0.31 0.31 0.31 0.29 0.29 0.29 0.29 0.27 0.27 0.27 0.25 0.25 0.25 0.27 0.27 0.27 0.29 0.31 0.32 0.34 0.31 0.29 0.29 0.29 0.29 0.29 0.29 0.29 0.29 0.29 0.29 0.29 0.29 0.29 0.29 0.31 0.31 0.32 0.34 0.34 0.34 0.34 0.36 0.36 0.34 0.34 0.34 0.34 0.34 0.34 0.34 0.34 0.34 0.34 0.34 0.34 0.34 0.32 0.32 0.31 0.31 0.31 0.31 0.31 0.31 0.31 0.31 0.31 0.29 0.29 0.27
0.31 0.31 0.31 0.31 0.31 0.31 0.32 0.32 0.32 0.31 0.31 0.31 0.31 0.31 0.31 0.31 0.31 0.31 0.31 0.29 0.29 0.29 0.29 0.29 0.27 0.27 0.27 0.27 0.27 0.27 0.29 0.29 0.32 0.34 0.34 0.31 0.29 0.29 0.29 0.29 0.29 0.29 0.29 0.29 0.29 0.29 0.29 0.29 0.29 0.29 0.29 0.31 0.31 0.32 0.34 0.34 0.34 0.34 0.36 0.34 0.34 0.34 0.34 0.34 0.34 0.34 0.34 0.34 0.32 0.32 0.32 0.32 0.32 0.31 0.29 0.31 0.31 0.31 0.29 0.29 0.29 0.29 0.29 0.29 0.29 0.29
0.31 0.31 0.31 0.31 0.31 0.31 0.31 0.31 0.31 0.31 0.31 0.31 0.31 0.31 0.31 0.31 0.31 0.31 0.31 0.31 0.31 0.31 0.31 0.31 0.29 0.29 0.31 0.29 0.29 0.29 0.31 0.32 0.32 0.34 0.32 0.31 0.31 0.29 0.29 0.29 0.29 0.29 0.29 0.29 0.29 0.29 0.29 0.29 0.29 0.29 0.29 0.29 0.29 0.31 0.32 0.34 0.34 0.34 0.34 0.34 0.34 0.34 0.34 0.34 0.34 0.34 0.34 0.32 0.32 0.32 0.32 0.31 0.31 0.29 0.29 0.29 0.29 0.29 0.29 0.29 0.29 0.29 0.29 0.29 0.29 0.29
0.31 0.31 0.31 0.31 0.31 0.31 0.31 0.31 0.31 0.31 0.31 0.31 0.31 0.31 0.32 0.32 0.32 0.31 0.31 0.31 0.31 0.31 0.31 0.31 0.31 0.31 0.31 0.31 0.31 0.31 0.32 0.32 0.32 0.34 0.34 0.32 0.31 0.31 0.29 0.29 0.31 0.31 0.29 0.29 0.29 0.29 0.29 0.29 0.29 0.29 0.29 0.29 0.29 0.31 0.31 0.32 0.34 0.34 0.34 0.34 0.34 0.34 0.34 0.34 0.34 0.32 0.32 0.31 0.31 0.31 0.31 0.29 0.29 0.29 0.29 0.29 0.29 0.29 0.27 0.27 0.29 0.29 0.27 0.29 0.27 0.27
0.29 0.31 0.31 0.31 0.31 0.31 0.31 0.31 0.31 0.31 0.31 0.31 0.31 0.32 0.32 0.32 0.32 0.31 0.31 0.31 0.31 0.31 0.31 0.31 0.31 0.32 0.32 0.32 0.32 0.32 0.32 0.32 0.34 0.34 0.32 0.32 0.32 0.31 0.31 0.31 0.31 0.31 0.31 0.31 0.31 0.29 0.29 0.29 0.29 0.29 0.29 0.29 0.31 0.31 0.32 0.32 0.32 0.32 0.32 0.34 0.34 0.34 0.34 0.32 0.32 0.32 0.32 0.31 0.31 0.29 0.29 0.29 0.29 0.29 0.29 0.27 0.27 0.27 0.25 0.27 0.27 0.27 0.27 0.27 0.27 0.27
0.29 0.29 0.29 0.31 0.31 0.32 0.32 0.31 0.31 0.32 0.32 0.32 0.32 0.32 0.32 0.32 0.32 0.32 0.31 0.31 0.32 0.32 0.32 0.32 0.32 0.32 0.32 0.32 0.32 0.32 0.34 0.34 0.34 0.32 0.32 0.32 0.32 0.31 0.31 0.31 0.31 0.31 0.31 0.31 0.31 0.31 0.29 0.29 0.29 0.29 0.29 0.29 0.29 0.31 0.31 0.32 0.32 0.32 0.32 0.32 0.32 0.32 0.32 0.32 0.32 0.32 0.31 0.29 0.29 0.29 0.29 0.27 0.27 0.27 0.27 0.27 0.27 0.25 0.25 0.25 0.25 0.25 0.25 0.25 0.25 0.27
0.29 0.31 0.31 0.32 0.34 0.34 0.34 0.32 0.32 0.32 0.34 0.34 0.34 0.34 0.34 0.34 0.32 0.32 0.32 0.32 0.32 0.32 0.32 0.32 0.32 0.32 0.34 0.34 0.34 0.34 0.34 0.34 0.34 0.34 0.34 0.32 0.32 0.32 0.32 0.31 0.31 0.31 0.31 0.32 0.32 0.31 0.31 0.31 0.31 0.31 0.31 0.29 0.31 0.31 0.31 0.32 0.32 0.32 0.32 0.32 0.31 0.31 0.32 0.32 0.31 0.31 0.31 0.29 0.27 0.27 0.27 0.27 0.27 0.27 0.27 0.25 0.25 0.25 0.25 0.25 0.25 0.25 0.25 0.25 0.25 0.23
0.31 0.31 0.32 0.34 0.36 0.36 0.36 0.36 0.36 0.36 0.36 0.36 0.34 0.34 0.34 0.34 0.34 0.32 0.32 0.32 0.32 0.34 0.34 0.34 0.34 0.34 0.32 0.34 0.34 0.34 0.34 0.34 0.34 0.34 0.34 0.34 0.32 0.32 0.32 0.32 0.32 0.32 0.32 0.32 0.32 0.32 0.31 0.31 0.31 0.31 0.31 0.31 0.31 0.31 0.31 0.31 0.32 0.32 0.31 0.31 0.31 0.31 0.31 0.31 0.31 0.29 0.29 0.27 0.27 0.27 0.27 0.27 0.27 0.27 0.27 0.25 0.25 0.25 0.25 0.25 0.25 0.25 0.25 0.25 0.23 0.23
0.32 0.34 0.34 0.36 0.36 0.36 0.36 0.36 0.36 0.36 0.36 0.34 0.34 0.34 0.34 0.34 0.34 0.34 0.32 0.32 0.32 0.32 0.34 0.32 0.32 0.32 0.32 0.32 0.32 0.34 0.34 0.34 0.34 0.34 0.34 0.34 0.32 0.32 0.32 0.32 0.32 0.32 0.32 0.32 0.32 0.32 0.32 0.31 0.31 0.32 0.32 0.32 0.31 0.31 0.31 0.31 0.32 0.32 0.32 0.31 0.31 0.31 0.31 0.31 0.29 0.29 0.27 0.27 0.27 0.27 0.27 0.25 0.25 0.25 0.25 0.25 0.25 0.25 0.25 0.25 0.25 0.25 0.25 0.25 0.25 0.25
0.34 0.36 0.36 0.36 0.36 0.36 0.36 0.36 0.36 0.36 0.34 0.34 0.34 0.34 0.34 0.34 0.34 0.34 0.34 0.32 0.32 0.34 0.32 0.32 0.32 0.32 0.32 0.31 0.31 0.32 0.32 0.32 0.34 0.34 0.34 0.34 0.34 0.34 0.34 0.34 0.34 0.34 0.34 0.34 0.32 0.32 0.32 0.32 0.32 0.32 0.32 0.32 0.32 0.31 0.31 0.31 0.31 0.32 0.32 0.31 0.31 0.29 0.27 0.27 0.27 0.27 0.27 0.27 0.27 0.27 0.25 0.25 0.25 0.25 0.25 0.25 0.25 0.25 0.25 0.25 0.25 0.25 0.25 0.25 0.25 0.23
0.34 0.34 0.36 0.36 0.36 0.36 0.36 0.34 0.34 0.34 0.34 0.34 0.34 0.34 0.34 0.34 0.36 0.34 0.34 0.34 0.34 0.34 0.34 0.34 0.32 0.32 0.31 0.31 0.31 0.31 0.32 0.32 0.34 0.34 0.34 0.34 0.34 0.34 0.34 0.36 0.36 0.36 0.36 0.34 0.32 0.32 0.32 0.32 0.32 0.34 0.34 0.32 0.32 0.31 0.31 0.31 0.31 0.31 0.32 0.31 0.31 0.29 0.29 0.27 0.27 0.27 0.27 0.27 0.27 0.27 0.27 0.27 0.25 0.25 0.25 0.25 0.25 0.25 0.25 0.25 0.25 0.25 0.25 0.25 0.25 0.25
0.34 0.34 0.34 0.34 0.34 0.34 0.34 0.34 0.32 0.32 0.32 0.32 0.32 0.34 0.34 0.34 0.36 0.36 0.34 0.34 0.34 0.34 0.34 0.32 0.32 0.32 0.31 0.31 0.31 0.31 0.32 0.32 0.34 0.34 0.34 0.36 0.36 0.36 0.36 0.36 0.36 0.36 0.36 0.34 0.34 0.34 0.32 0.32 0.34 0.34 0.34 0.34 0.34 0.32 0.32 0.31 0.31 0.31 0.31 0.32 0.31 0.31 0.29 0.29 0.27 0.27 0.27 0.27 0.27 0.27 0.27 0.27 0.25 0.25 0.25 0.25 0.25 0.25 0.25 0.25 0.25 0.25 0.25 0.25 0.25 0.25
0.34 0.34 0.34 0.34 0.32 0.32 0.32 0.32 0.32 0.32 0.32 0.32 0.32 0.34 0.34 0.34 0.36 0.34 0.34 0.34 0.34 0.32 0.32 0.32 0.32 0.31 0.31 0.31 0.31 0.31 0.31 0.32 0.32 0.34 0.34 0.34 0.36 0.36 0.38 0.38 0.38 0.38 0.38 0.38 0.38 0.36 0.36 0.34 0.34 0.34 0.34 0.34 0.34 0.32 0.32 0.31 0.31 0.31 0.31 0.31 0.31 0.29 0.29 0.29 0.27 0.27 0.27 0.27 0.27 0.27 0.27 0.27 0.27 0.25 0.25 0.23 0.23 0.23 0.25 0.25 0.25 0.25 0.25 0.25 0.25 0.25
0.34 0.34 0.34 0.32 0.32 0.32 0.32 0.32 0.32 0.32 0.32 0.32 0.32 0.34 0.34 0.34 0.34 0.34 0.34 0.34 0.34 0.34 0.32 0.32 0.32 0.32 0.31 0.31 0.31 0.31 0.31 0.31 0.32 0.32 0.32 0.34 0.34 0.36 0.38 0.38 0.38 0.38 0.38 0.38 0.38 0.38 0.38 0.36 0.36 0.36 0.34 0.34 0.32 0.32 0.32 0.32 0.32 0.31 0.31 0.31 0.31 0.31 0.29 0.29 0.29 0.29 0.27 0.27 0.27 0.27 0.27 0.27 0.25 0.25 0.23 0.23 0.23 0.23 0.25 0.25 0.25 0.25 0.25 0.25 0.25 0.25
0.34 0.34 0.34 0.32 0.32 0.32 0.32 0.32 0.32 0.31 0.31 0.32 0.32 0.32 0.34 0.34 0.34 0.34 0.34 0.34 0.34 0.34 0.32 0.32 0.32 0.31 0.31 0.31 0.31 0.32 0.32 0.32 0.32 0.32 0.32 0.34 0.34 0.36 0.38 0.38 0.38 0.38 0.40 0.38 0.38 0.38 0.38 0.38 0.38 0.38 0.38 0.36 0.34 0.32 0.32 0.32 0.32 0.32 0.32 0.31 0.31 0.29 0.29 0.27 0.29 0.29 0.29 0.27 0.27 0.27 0.27 0.27 0.25 0.25 0.23 0.23 0.23 0.23 0.23 0.25 0.25 0.25 0.25 0.27 0.25 0.25
0.32 0.32 0.32 0.32 0.32 0.32 0.32 0.31 0.31 0.31 0.31 0.32 0.32 0.32 0.32 0.34 0.34 0.34 0.34 0.34 0.34 0.34 0.32 0.32 0.32 0.32 0.32 0.32 0.32 0.32 0.32 0.32 0.32 0.32 0.32 0.34 0.34 0.36 0.36 0.36 0.38 0.38 0.38 0.38 0.38 0.38 0.38 0.40 0.40 0.40 0.38 0.36 0.36 0.34 0.32 0.32 0.32 0.32 0.32 0.31 0.31 0.29 0.29 0.29 0.29 0.29 0.29 0.27 0.27 0.27 0.27 0.27 0.27 0.25 0.25 0.23 0.23 0.23 0.23 0.23 0.25 0.25 0.25 0.27 0.27 0.25
0.32 0.32 0.32 0.31 0.31 0.31 0.31 0.31 0.31 0.31 0.31 0.32 0.32 0.32 0.32 0.32 0.34 0.34 0.34 0.34 0.34 0.34 0.34 0.32 0.32 0.32 0.32 0.32 0.32 0.32 0.32 0.32 0.32 0.32 0.32 0.34 0.34 0.34 0.36 0.36 0.36 0.36 0.36 0.38 0.36 0.36 0.38 0.38 0.38 0.40 0.40 0.38 0.38 0.36 0.34 0.34 0.32 0.32 0.32 0.32 0.31 0.31 0.29 0.29 0.29 0.29 0.29 0.29 0.27 0.27 0.27 0.27 0.27 0.27 0.25 0.23 0.23 0.23 0.23 0.23 0.23 0.23 0.25 0.25 0.27 0.27
0.31 0.31 0.31 0.31 0.31 0.31 0.31 0.31 0.31 0.31 0.31 0.32 0.32 0.32 0.32 0.32 0.32 0.34 0.34 0.34 0.36 0.36 0.34 0.34 0.34 0.34 0.34 0.32 0.32 0.32 0.34 0.34 0.34 0.34 0.34 0.34 0.34 0.36 0.36 0.36 0.36 0.36 0.34 0.36 0.34 0.34 0.34 0.36 0.36 0.36 0.36 0.38 0.40 0.40 0.38 0.36 0.34 0.32 0.32 0.31 0.31 0.29 0.29 0.29 0.29 0.29 0.29 0.29 0.29 0.29 0.27 0.27 0.27 0.27 0.27 0.25 0.23 0.23 0.21 0.21 0.23 0.23 0.25 0.25 0.25 0.25
Wind_Speed
27 28 28 29 29 30 30 29 27 25 25 24 23 23 22 22 21 20 20 19 18 17 17 16 16 15 15 14 14 13 13 13 13 12 12 12 13 13 13 13 13 14 14 14 15 15 15 16 16 16 16 16 16 16 16 16 16 16 16 16 16 16 16 16 16 15 15 15 15 15 15 15 15 15 15 15 15 15 15 15 15 15 16 16 16 15
28 28 29 30 30 29 28 27 25 24 23 23 22 22 21 21 20 19 19 18 17 16 16 15 15 15 14 14 13 13 13 12 13 13 13 13 13 13 13 14 14 14 15 15 15 16 16 16 16 17 17 17 17 17 17 17 17 17 17 17 17 17 16 16 16 16 16 16 16 16 16 16 16 16 15 15 15 15 15 16 16 16 16 16 16 16
29 29 30 30 29 28 26 25 24 23 22 22 22 21 20 20 19 18 18 17 16 16 15 15 14 14 13 13 13 12 12 12 13 13 13 13 14 14 14 14 15 15 15 16 16 16 16 17 17 17 17 17 17 17 17 17 17 17 17 17 17 17 17 17 17 17 16 16 16 16 16 16 16 16 16 16 16 16 16 16 16 16 16 16 16 16
29 30 30 29 28 27 25 24 23 22 21 21 20 20 19 19 18 18 17 16 16 15 14 14 14 13 13 13 12 12 12 13 13 13 13 14 14 14 15 15 15 16 16 16 16 17 17 17 17 17 17 17 17 17 17 17 17 17 17 17 17 17 17 17 17 17 17 17 17 17 17 17 17 16 16 16 16 16 16 16 16 16 17 17 17 17
30 30 29 28 26 25 24 23 22 21 21 20 19 19 19 18 18 17 16 16 15 15 14 14 13 13 13 13 12 13 13 13 13 14 14 14 15 15 15 16 16 16 16 17 17 17 17 17 17 17 17 17 17 17 17 17 17 17 17 17 17 17 17 17 17 17 17 17 17 17 17 17 17 17 17 17 17 17 17 17 17 17 17 17 17 17
30 29 28 26 25 24 23 22 21 20 20 19 19 18 18 17 17 16 16 15 15 14 14 14 13 13 13 13 13 13 13 14 14 14 15 15 15 16 16 16 16 17 17 17 17 17 17 17 17 17 17 17 17 17 17 17 17 17 18 18 18 18 17 17 17 17 17 17 17 17 17 17 17 17 17 17 17 17 17 17 17 17 17 18 18 18
28 27 26 25 24 23 22 21 20 20 19 19 19 18 17 17 16 15 15 15 14 14 14 13 13 13 13 13 13 13 14 14 14 15 15 15 16 16 16 16 17 17 17 17 17 17 17 17 17 17 17 17 17 17 17 17 17 18 18 18 17 17 17 17 17 17 17 17 17 17 17 17 17 17 17 17 17 17 17 17 17 18 18 18 18 18
27 26 25 24 23 22 21 20 19 19 19 18 18 17 17 16 15 15 14 14 14 14 14 13 13 13 13 13 13 14 14 14 15 15 15 16 16 16 17 17 17 17 17 17 17 17 17 17 17 17 17 17 17 17 17 17 17 17 17 17 17 17 17 17 17 17 17 17 17 17 17 17 17 17 17 17 17 17 17 17 18 18 18 18 18 18
25 24 23 22 21 20 20 19 19 19 18 18 17 16 15 15 15 14 14 14 14 14 13 13 13 14 14 14 14 14 14 15 15 15 15 16 16 16 17 17 17 17 17 17 17 17 17 17 17 17 17 17 17 17 17 17 17 17 17 17 17 17 17 17 17 17 17 17 17 17 17 17 17 17 17 17 17 17 17 17 18 18 18 18 18 18
24 23 22 21 20 19 19 19 19 18 17 16 16 15 15 14 14 14 14 14 14 14 13 13 14 14 14 15 15 15 15 15 15 15 16 16 16 16 17 17 17 17 17 16 16 17 17 17 17 17 17 17 17 17 17 17 17 16 16 16 16 16 16 17 17 17 17 17 17 17 17 17 17 17 17 17 17 17 17 18 18 18 18 18 18 18
23 22 20 20 19 19 18 18 18 17 16 15 15 15 14 14 14 13 13 13 13 14 14 14 14 14 15 15 15 15 15 15 15 16 16 16 16 16 16 16 16 16 16 16 17 17 17 17 17 17 17 17 17 17 17 17 16 16 16 16 16 16 16 16 16 16 16 17 17 17 17 17 17 17 17 17 17 17 18 18 18 18 18 18 18 18
21 20 19 18 18 18 17 17 16 16 15 15 14 14 14 14 14 13 13 13 13 14 14 14 14 15 15 15 16 16 16 16 16 16 16 16 16 16 16 16 16 16 16 17 17 17 17 17 17 17 16 16 16 17 16 16 16 16 16 16 16 16 16 16 16 16 16 16 16 16 17 17 17 17 17 17 17 17 18 18 18 18 18 18 18 18
19 19 18 18 17 17 16 16 15 15 14 14 14 14 14 14 14 13 13 13 14 14 14 15 15 15 16 16 16 16 16 16 16 16 16 16 17 17 17 17 17 17 17 17 16 16 16 16 16 16 16 16 16 16 16 16 16 16 16 16 16 16 16 16 16 16 16 16 16 16 16 16 16 17 17 17 17 17 18 18 18 18 18 18 18 18
18 17 17 17 16 16 15 15 14 14 14 14 14 14 14 13 13 13 13 14 14 15 15 15 15 16 16 16 16 16 16 16 16 16 16 17 17 17 17 17 17 17 17 16 16 16 16 16 16 16 16 16 16 16 16 16 16 16 16 16 16 16 16 16 16 16 16 16 16 16 16 17 17 17 17 17 17 18 18 18 18 18 18 18 19 19
17 16 16 16 15 15 14 14 14 14 14 14 14 13 13 13 13 14 14 14 14 15 15 15 16 16 16 17 17 16 16 16 16 16 16 17 17 17 17 17 17 17 16 16 16 16 16 16 16 16 16 16 16 16 16 16 16 17 16 16 16 16 16 16 16 16 16 16 17 17 17 17 17 17 17 18 18 18 18 18 19 19 19 19 19 19
16 15 15 14 14 14 14 14 14 14 14 13 13 13 13 13 13 14 14 14 15 15 15 15 16 16 16 17 17 16 16 16 16 16 16 17 17 17 16 16 16 16 16 16 16 16 16 16 16 16 16 16 16 16 16 17 17 17 16 16 16 16 16 17 17 17 17 17 17 17 17 18 18 18 18 18 18 19 19 19 19 19 19 19 19 19
15 14 14 14 14 14 14 14 13 13 13 13 13 13 13 13 14 14 14 14 15 15 15 15 15 15 16 16 16 16 16 15 15 16 16 16 17 16 16 16 16 16 16 16 16 16 16 16 16 16 16 16 16 16 16 17 17 16 16 16 17 17 17 17 17 17 17 17 17 18 18 18 18 19 19 19 19 19 19 19 19 19 19 19 19 19
14 14 13 13 13 13 13 13 13 13 13 13 13 13 14 14 14 14 14 15 15 15 15 15 15 15 15 15 16 16 16 15 15 16 16 16 16 16 16 16 16 16 16 16 16 16 16 16 16 16 16 16 17 17 17 17 17 16 17 17 17 17 17 17 17 17 17 18 18 18 19 19 19 19 19 20 20 20 20 19 19 19 19 19 19 19
14 13 13 13 13 13 13 13 13 13 13 13 13 13 13 14 14 14 15 15 15 15 15 15 15 15 15 15 16 16 16 15 15 16 16 16 16 16 16 16 16 16 16 17 17 17 17 16 16 17 17 17 17 17 17 17 17 17 17 17 17 17 17 17 17 17 18 18 18 19 19 19 19 20 20 20 20 20 20 20 20 20 20 20 20 20
13 13 13 13 13 13 13 14 14 14 13 13 13 13 13 14 14 14 14 15 15 15 15 15 15 15 15 15 16 16 16 16 16 16 16 16 16 16 16 16 16 16 17 17 17 17 17 17 17 17 17 17 17 17 17 17 17 17 17 17 17 17 17 18 18 18 18 18 19 19 19 19 20 20 20 20 20 20 20 20 20 20 20 20 20 20
13 13 13 13 13 13 13 13 13 13 13 13 13 13 13 14 14 14 14 14 14 14 14 14 15 15 15 15 16 16 16 16 16 16 16 17 17 17 17 16 16 17 17 17 17 17 17 17 17 17 17 17 17 17 17 17 17 17 17 18 18 18 18 18 18 19 19 19 19 19 19 20 20 20 20 20 20 20 20 20 20 20 20 21 21 21
12 13 13 13 13 13 13 13 13 13 13 13 13 13 13 14 14 14 14 14 14 14 14 14 14 15 15 15 16 16 16 16 16 16 16 17 17 17 17 17 17 17 17 18 18 18 18 18 18 18 18 17 17 17 17 17 17 17 18 18 18 18 19 19 19 19 19 20 20 20 20 20 20 20 20 20 20 20 20 21 21 21 21 21 21 22
12 12 13 13 13 13 13 13 13 13 13 13 13 13 14 13 13 14 14 14 14 14 14 14 15 15 15 16 16 16 17 16 16 16 16 17 17 17 17 17 17 17 18 18 18 18 18 18 18 18 17 17 17 17 17 17 17 18 18 18 19 19 19 19 19 20 20 20 20 20 20 20 20 20 21 21 21 21 21 21 21 22 22 22 22 22
12 12 13 13 13 13 13 13 13 13 13 13 13 13 13 13 13 13 13 13 14 14 14 15 15 15 16 16 16 16 17 17 17 17 17 17 17 17 18 17 17 18 18 18 18 18 18 18 18 17 17 17 17 17 17 18 18 18 19 19 19 19 20 20 20 20 20 20 20 21 21 21 21 21 21 21 21 22 22 22 22 22 22 23 23 23
12 12 13 13 13 13 13 13 13 13 13 12 12 12 12 12 12 12 13 13 14 14 14 15 15 15 16 16 16 16 17 17 17 17 17 17 17 18 18 18 18 18 18 18 19 18 18 18 18 17 17 17 17 17 18 18 18 19 19 19 20 20 20 20 20 20 20 20 20 21 21 21 21 21 22 22 22 22 22 23 23 23 23 23 23 23
12 12 12 12 12 12 12 12 12 12 12 12 12 12 12 12 12 13 13 14 14 14 14 15 15 16 16 16 16 17 17 17 17 17 17 17 17 18 18 18 18 18 18 18 18 18 18 18 18 18 17 17 17 18 18 19 19 19 20 20 20 20 20 20 20 20 20 20 21 21 21 21 21 22 22 22 22 23 23 23 23 23 24 24 24 24
12 12 12 12 12 12 12 12 11 11 11 11 12 12 12 12 13 13 14 14 14 14 15 15 15 16 16 16 16 17 17 17 17 17 17 17 17 17 18 18 18 18 18 18 18 18 18 18 18 18 18 18 18 18 19 19 20 20 20 20 20 20 20 20 20 20 21 21 21 21 21 21 22 22 22 22 23 23 23 23 23 24 24 24 24 23
11 11 11 11 11 11 11 11 11 11 11 12 12 12 12 13 13 14 14 14 15 15 15 15 15 15 16 16 16 17 17 17 17 17 17 17 17 17 18 18 18 18 18 18 18 18 18 18 18 18 18 18 19 19 19 20 20 20 20 20 20 20 20 20 20 20 21 21 21 21 22 22 22 22 23 23 23 23 23 23 23 23 23 23 23 23
11 11 11 11 11 11 11 11 11 11 12 12 12 13 13 13 13 14 14 14 15 15 15 15 15 15 15 16 16 17 17 17 17 17 17 17 17 17 17 18 18 18 18 18 18 18 18 18 18 18 19 19 19 19 20 20 20 20 20 20 20 20 20 20 20 21 21 21 21 22 22 22 22 23 23 23 23 23 23 23 23 23 23 23 23 23
11 11 11 11 11 11 11 11 11 12 12 12 12 13 13 13 14 14 14 14 15 15 15 15 15 15 16 16 16 17 17 17 17 17 17 17 17 17 17 17 17 18 17 17 17 18 18 18 18 18 19 19 19 20 20 20 20 20 20 20 20 20 20 21 21 21 21 22 22 22 22 22 22 22 22 22 22 22 22 22 22 22 22 23 23 23
12 12 11 11 11 11 11 12 12 12 12 13 13 13 13 14 14 14 14 15 15 15 15 15 16 16 16 16 16 16 17 17 17 17 17 17 17 17 17 17 17 18 17 17 17 17 18 18 18 19 19 19 20 20 20 20 20 20 20 20 20 21 21 21 21 22 22 22 22 22 22 22 22 22 22 22 22 22 22 22 22 22 22 23 23 23
12 12 12 12 12 11 12 12 12 12 13 13 13 13 13 14 14 14 14 15 15 15 15 16 16 16 16 16 16 16 16 17 17 17 17 16 17 17 17 17 17 17 18 17 17 17 17 18 18 19 19 19 20 20 20 20 20 20 20 21 21 21 22 22 22 22 22 22 22 22 22 22 22 22 22 22 22 22 22 22 22 22 23 23 23 24
12 11 11 12 12 12 12 12 12 13 13 13 13 14 14 14 14 14 15 15 15 15 16 16 16 16 16 17 17 17 17 17 17 17 17 17 17 17 17 17 17 17 18 18 18 18 18 18 19 19 19 20 20 20 20 21 21 21 21 21 21 21 22 22 22 22 22 22 22 22 22 22 21 21 21 21 21 21 21 22 22 22 23 23 23 24
11 11 11 11 12 12 12 12 12 13 13 14 14 14 14 14 14 15 15 15 16 16 16 16 16 17 17 17 17 17 17 18 18 17 17 17 17 17 17 17 17 17 18 18 18 18 18 19 19 19 20 20 21 20 20 21 21 21 21 21 21 21 22 22 22 21 21 21 21 21 21 21 21 21 21 21 21 21 22 22 22 23 23 23 24 24
11 11 11 11 12 12 12 12 13 13 14 14 14 15 15 15 15 15 16 16 16 16 17 17 17 17 17 17 17 18 18 18 18 18 18 18 17 17 17 18 18 18 18 18 18 18 19 19 20 20 20 20 21 21 20 21 21 21 21 21 21 21 21 21 21 21 21 21 21 21 21 20 20 20 21 21 21 22 22 22 23 23 24 24 24 25
11 11 11 12 12 12 12 13 13 14 14 14 15 15 15 16 16 16 16 17 17 17 17 17 17 17 17 17 18 18 18 18 18 18 18 18 18 18 18 18 18 18 18 18 19 19 19 19 20 20 21 20 21 21 21 21 21 21 21 21 21 21 21 21 21 21 20 20 20 20 20 20 20 20 21 21 22 22 23 23 23 24 24 24 25 25
11 12 12 12 12 12 13 13 14 14 14 15 15 15 16 16 16 17 17 17 17 17 18 18 18 18 18 18 18 18 19 19 19 19 19 19 19 18 18 19 19 19 18 19 19 19 19 20 20 21 21 21 21 21 21 21 21 21 21 21 21 21 21 21 20 20 20 20 20 20 20 20 21 21 21 22 22 23 23 24 24 24 25 25 25 26
12 12 12 13 13 13 13 14 14 14 15 15 15 15 16 16 16 17 17 17 18 18 18 18 18 19 19 19 19 19 19 19 19 19 19 20 19 19 19 19 19 19 19 19 19 20 20 20 20 20 20 21 21 21 22 22 21 21 20 20 20 20 20 20 20 20 20 20 20 20 20 21 21 21 22 22 23 23 24 24 25 25 25 26 26 27
12 12 13 13 13 13 14 14 14 15 15 15 15 16 16 16 17 17 17 18 18 18 18 18 19 19 19 19 20 20 20 20 20 20 20 20 20 20 20 20 20 20 20 20 20 20 20 20 20 20 20 21 21 22 22 21 21 21 21 20 20 20 20 20 20 20 20 20 20 20 21 21 21 22 22 23 23 24 24 24 25 25 26 26 26 27
13 13 13 13 14 14 14 14 15 15 15 16 16 16 16 16 17 17 17 18 18 18 19 19 19 19 20 20 20 20 20 21 21 21 21 21 21 21 21 20 20 21 21 21 21 21 21 21 21 21 21 21 21 22 22 21 21 21 21 21 20 20 20 20 20 20 20 20 20 21 21 21 22 22 23 23 23 24 24 24 25 25 26 26 26 26
13 13 14 14 14 14 15 15 15 15 16 16 16 16 16 17 17 18 18 18 18 19 19 19 20 20 20 20 21 21 21 21 21 22 22 22 22 22 22 21 21 21 21 21 21 21 21 21 21 21 22 22 22 22 22 22 22 21 21 21 21 21 21 21 21 21 21 21 21 21 22 22 22 23 23 24 24 24 25 25 25 26 26 27 26 27
13 14 14 14 15 15 15 16 16 16 16 16 16 17 17 18 18 18 18 19 19 19 20 20 20 20 21 21 21 21 22 22 22 22 22 22 22 22 22 22 22 22 21 22 22 22 22 22 22 22 22 22 22 22 22 22 22 22 21 21 22 22 21 21 21 21 21 21 22 22 22 22 23 23 24 24 25 25 25 26 26 26 26 27 27 27
14 14 14 15 15 15 16 16 16 16 17 17 17 17 18 18 18 19 19 19 20 20 20 20 21 21 21 22 22 22 22 22 22 22 23 23 23 23 23 23 23 22 22 22 22 22 22 22 22 22 23 23 23 23 23 23 22 22 22 22 22 22 22 21 21 21 21 22 22 22 23 23 23 24 24 25 25 25 26 26 26 27 27 27 28 28
14 15 15 15 16 16 16 17 17 17 17 18 18 18 19 19 19 19 19 20 20 20 21 21 21 22 22 22 22 22 22 22 22 22 23 23 23 23 23 23 23 23 23 23 23 23 23 23 23 23 23 23 23 23 23 23 23 23 22 22 22 22 22 22 22 22 22 22 22 23 23 24 24 24 25 25 25 26 26 26 27 27 28 28 28 29
15 15 15 16 16 17 17 17 18 18 18 18 19 19 19 20 20 20 20 20 21 21 21 22 22 22 22 22 22 22 22 22 22 22 22 23 23 23 23 24 24 24 23 23 23 23 23 24 24 24 24 24 24 24 24 24 24 23 23 23 23 23 23 23 23 23 23 23 23 23 24 24 24 24 25 25 25 26 26 26 27 27 28 28 29 29
15 15 16 16 17 17 18 18 18 19 19 19 20 20 20 21 21 21 21 21 22 22 22 22 22 22 23 23 23 23 23 23 23 23 22 23 23 23 24 24 24 24 24 24 24 24 24 24 24 24 24 25 25 25 25 24 24 24 24 23 23 23 23 23 23 23 23 23 24 24 24 24 24 25 25 25 26 26 26 27 27 27 28 28 29 29
16 16 17 17 17 18 18 19 19 19 20 20 20 21 21 21 22 22 22 22 22 22 23 23 23 23 23 24 23 23 23 23 23 23 23 23 23 23 23 24 24 24 24 25 25 25 25 25 25 25 25 25 25 25 25 25 25 25 24 24 24 24 24 24 24 23 23 24 24 24 24 25 25 25 25 26 26 26 27 27 27 28 28 28 29 29
17 17 17 18 18 19 19 19 20 20 20 21 21 22 22 22 22 23 23 23 23 23 23 24 24 24 24 24 24 24 24 24 24 24 24 24 24 24 24 24 24 25 25 25 26 26 26 26 26 26 26 26 26 26 26 26 25 25 25 25 25 25 25 24 24 24 24 24 24 24 24 25 25 25 26 26 27 27 27 27 27 28 28 28 29 29
18 18 18 19 19 19 20 20 20 21 21 21 22 22 23 23 23 23 23 23 23 24 24 24 24 24 25 25 25 25 25 25 25 25 25 25 24 24 24 24 24 25 25 26 26 27 27 27 28 28 27 27 27 27 27 26 26 26 26 25 25 25 25 25 24 24 24 24 25 25 25 25 25 26 26 26 27 27 27 27 28 28 28 29 29 29
19 19 19 20 20 21 21 21 21 22 22 22 23 23 23 23 24 24 24 24 24 24 24 24 25 25 25 25 26 26 26 26 26 26 25 25 25 25 25 25 25 25 26 26 26 27 27 28 28 28 28 28 28 27 27 27 27 26 26 26 26 25 25 25 25 25 25 25 25 25 25 25 25 26 26 26 27 27 28 28 28 28 28 29 29 29
20 20 21 21 21 22 22 22 22 23 23 23 23 24 24 24 24 24 24 24 24 24 24 25 25 25 26 26 26 26 26 26 26 26 26 26 26 26 26 26 26 26 26 27 27 27 27 27 28 28 28 28 28 28 27 27 27 26 26 26 26 25 25 25 25 25 25 25 25 25 25 25 26 26 26 26 27 27 28 28 28 28 28 29 29 30
Wind_Direction
278 280 281 283 284 285 285 284 284 284 284 284 285 286 286 286 285 284 283 283 282 282 282 281 280 279 279 278 277 277 277 277 278 278 279 281 282 283 284 286 287 287 288 289 289 290 290 290 289 289 288 288 287 287 286 286 286 286 286 286 286 287 287 286 286 285 285 284 284 284 284 285 286 287 288 288 289 290 290 291 291 291 292 292 292 292
280 282 283 284 284 284 284 283 282 282 283 284 284 285 285 284 283 282 281 280 280 279 279 279 278 278 277 277 276 277 277 277 278 279 281 282 283 284 285 286 287 288 288 289 289 289 289 289 289 289 288 288 287 286 286 286 285 285 285 285 285 285 286 285 285 285 284 284 284 284 284 285 286 286 287 288 288 289 290 290 291 291 292 292 292 291
281 282 283 283 283 283 282 281 281 281 283 284 283 283 282 282 281 280 279 278 277 277 276 276 276 276 276 276 276 276 277 278 279 280 282 283 284 285 286 287 288 288 289 289 290 290 290 289 289 289 288 288 287 287 286 286 285 285 285 285 285 285 285 285 284 284 284 284 284 284 284 284 285 285 286 287 288 288 289 290 291 291 292 292 292 291
281 281 282 283 282 281 281 280 281 281 282 282 282 281 280 280 279 278 277 275 275 274 273 273 274 274 274 275 276 277 277 279 280 281 282 284 285 286 287 287 288 289 289 290 290 290 290 290 289 289 288 288 287 287 287 286 286 286 285 285 285 284 284 284 284 283 283 283 283 283 283 283 284 285 285 286 287 288 289 289 290 291 291 291 291 291
280 281 281 281 280 280 279 279 280 280 280 280 279 279 278 278 277 276 275 273 272 271 271 271 272 273 274 275 276 278 278 279 280 282 283 284 285 286 287 287 288 289 289 290 290 290 290 290 289 289 288 288 287 287 287 286 286 286 286 285 285 284 284 283 283 283 283 283 283 283 283 283 283 284 285 285 286 287 287 288 289 289 290 290 290 290
280 280 280 280 279 278 278 278 278 278 278 278 277 277 277 276 276 275 273 272 270 270 270 270 271 273 274 275 277 278 279 280 281 282 283 284 285 286 287 287 288 289 289 290 290 290 290 290 290 289 289 288 288 287 287 287 286 286 286 285 285 285 284 283 283 283 283 282 282 282 282 283 283 283 284 285 285 286 286 287 288 288 289 289 289 289
279 279 279 278 278 277 276 276 276 276 275 275 275 275 275 275 274 273 271 270 269 269 269 270 272 273 275 276 278 279 280 280 282 283 284 285 285 286 287 288 288 289 289 289 289 289 289 289 290 289 289 288 288 287 287 287 286 286 286 285 285 285 284 284 283 283 283 282 282 282 282 283 283 283 284 284 285 285 286 286 287 288 288 288 288 288
278 277 277 276 276 275 274 274 274 274 273 273 272 272 272 272 271 270 269 269 268 268 269 271 273 275 277 278 279 280 280 281 282 284 285 286 286 287 287 288 288 288 288 288 288 289 289 289 289 289 289 288 288 288 287 287 287 287 286 286 285 284 284 284 283 283 283 283 283 283 283 283 283 283 284 284 285 285 286 286 286 287 287 288 288 288
275 274 274 273 273 272 272 272 272 271 271 271 270 269 268 268 267 267 267 267 268 269 270 272 274 276 279 280 280 281 281 282 283 284 285 286 286 287 288 288 288 288 288 288 288 288 289 289 289 289 289 288 288 288 288 288 288 287 287 286 286 285 284 284 284 283 283 283 283 283 283 283 283 284 284 285 285 285 286 286 286 287 287 288 288 287
272 271 270 270 270 269 270 270 270 269 269 268 267 266 265 264 264 264 264 266 268 270 272 273 275 277 280 281 282 281 281 282 283 284 285 286 286 287 288 288 288 288 288 287 288 288 289 289 289 289 289 288 288 288 288 288 288 288 287 287 287 286 285 285 284 284 284 283 283 283 283 284 284 284 285 285 285 286 286 286 287 287 287 288 287 287
269 268 267 267 267 267 268 268 267 267 266 266 265 265 264 263 262 261 262 264 267 270 272 275 276 278 280 281 282 282 282 283 284 285 285 286 287 287 288 289 289 289 288 288 288 289 289 289 289 289 288 288 288 288 288 289 288 288 288 288 287 287 286 286 286 285 285 285 285 285 284 284 285 285 285 285 286 286 286 286 287 287 287 287 287 286
266 266 265 265 265 265 266 265 264 264 263 263 263 262 262 262 261 261 261 263 266 270 273 275 277 278 279 280 281 282 283 283 285 286 287 287 288 288 289 290 289 289 289 288 289 289 290 290 289 289 289 288 288 288 289 289 289 289 289 288 288 287 287 287 286 286 286 286 286 286 286 286 285 285 286 286 286 286 286 287 287 287 287 287 286 285
264 263 264 264 263 263 263 262 261 261 261 260 260 259 259 260 261 262 263 265 267 270 273 275 277 278 279 280 281 282 282 283 285 286 287 287 288 289 290 290 290 289 289 288 289 290 290 290 290 289 289 289 288 289 289 289 289 289 289 289 289 288 288 287 287 287 286 286 286 286 286 286 286 286 286 286 286 286 287 287 287 288 287 287 286 285
261 261 261 261 261 261 260 259 258 258 258 259 259 258 259 260 261 263 265 267 269 271 273 275 276 278 279 280 281 282 282 282 283 285 286 286 288 289 290 291 290 289 289 289 289 290 290 290 290 290 289 289 289 289 289 289 290 290 290 290 289 289 288 288 287 287 287 286 286 286 286 286 286 286 286 286 286 287 287 287 288 288 287 287 286 285
258 258 258 258 258 258 257 256 256 256 257 258 259 259 260 261 262 265 267 269 271 273 274 276 277 278 279 279 281 282 281 282 283 284 284 285 287 289 290 290 289 289 288 289 289 289 290 290 290 290 290 289 289 289 290 290 290 290 290 290 290 290 289 288 288 287 287 287 286 286 286 286 286 286 286 286 287 287 287 287 288 287 287 287 286 285
255 255 255 255 255 255 255 255 255 256 257 258 259 260 261 262 264 266 268 270 271 273 275 277 278 279 279 279 280 281 281 281 282 283 284 285 287 289 290 289 289 288 288 288 289 289 289 290 290 290 290 290 289 290 290 290 290 290 290 290 290 290 290 289 288 288 287 287 287 286 286 286 286 286 286 286 287 287 287 287 287 287 287 286 286 285
253 253 252 252 252 253 254 254 254 255 256 258 260 261 262 263 265 268 269 270 272 274 276 277 279 280 280 280 281 281 281 282 283 284 285 286 288 289 290 289 288 288 288 288 288 288 289 289 290 290 290 289 289 290 290 290 290 290 290 290 290 290 290 290 289 288 287 287 287 286 286 286 286 286 286 286 286 287 287 287 287 286 286 286 285 285
251 250 250 250 251 251 252 253 255 256 257 259 260 263 264 266 267 269 270 271 272 274 275 276 278 279 280 281 281 281 282 282 284 285 286 286 287 289 290 289 288 287 287 288 288 288 288 289 289 290 289 289 289 289 290 290 290 290 290 290 290 290 290 290 289 289 288 288 287 287 286 286 286 286 286 286 286 286 287 286 286 286 286 285 285 285
249 249 249 249 250 251 252 253 255 256 258 259 261 263 265 267 269 270 271 272 272 273 274 276 277 278 279 280 281 281 283 284 285 286 287 287 287 288 290 289 288 288 288 287 288 288 288 289 289 289 289 289 289 289 289 289 289 289 290 290 290 290 290 289 289 289 289 288 288 287 287 287 287 287 287 287 287 287 286 286 286 285 285 285 285 284
248 249 249 249 250 251 253 255 256 257 259 260 262 264 266 268 269 271 271 272 273 273 274 275 276 278 279 280 282 282 283 284 286 287 287 286 286 287 289 288 288 288 288 287 288 288 289 289 289 289 289 289 288 289 289 289 289 289 290 290 290 289 289 289 289 289 289 289 288 288 288 288 288 288 288 287 287 287 287 286 286 285 285 284 284 284
248 249 250 251 252 252 254 256 258 259 261 262 264 265 266 268 269 270 271 272 273 274 275 276 277 278 280 281 282 283 283 284 286 287 287 286 286 286 287 288 288 288 288 287 288 289 289 289 289 289 289 288 288 288 289 289 289 290 290 290 290 290 290 289 289 289 289 289 289 289 289 289 289 289 288 288 287 287 286 286 286 285 285 285 284 284
249 250 252 253 254 255 256 257 259 260 262 264 265 266 267 268 269 270 271 272 274 275 276 277 278 280 281 281 282 283 283 284 285 286 286 286 285 285 286 287 288 288 288 288 288 289 290 290 290 289 289 288 288 288 288 289 290 290 291 291 291 291 291 290 290 290 290 289 289 289 289 289 289 289 288 288 288 287 287 286 286 286 286 285 285 285
250 251 252 254 255 257 258 259 260 260 261 264 266 267 268 268 269 270 272 273 275 276 278 279 281 282 283 283 284 284 284 284 284 285 286 285 285 285 286 287 288 288 288 288 289 290 290 290 290 290 289 289 289 289 289 289 290 291 291 291 291 291 291 291 290 290 290 290 289 289 289 289 288 288 288 287 287 287 287 287 287 287 286 286 286 286
251 252 253 254 256 258 259 260 260 260 261 263 265 267 268 269 271 273 274 276 278 279 280 282 283 284 285 284 285 285 285 284 284 285 285 284 284 285 287 287 288 288 288 289 290 290 291 290 290 290 290 290 289 290 290 290 291 291 291 291 291 291 291 291 291 291 290 290 290 290 289 289 288 288 288 287 287 287 287 287 287 287 287 287 286 286
251 252 253 254 255 257 258 258 259 259 261 263 265 267 269 271 274 276 278 279 281 282 282 284 285 285 285 285 285 286 286 285 284 285 285 284 285 286 287 287 288 288 289 290 290 290 290 289 290 290 290 290 290 290 290 290 291 291 291 291 291 291 291 291 291 291 291 291 290 290 290 289 289 288 288 288 287 287 287 287 287 287 287 287 287 286
249 250 252 253 255 256 258 258 259 260 261 263 265 268 271 274 276 279 280 281 282 283 284 285 285 285 286 286 286 286 286 286 285 285 285 285 285 286 286 287 288 288 289 290 290 289 288 287 288 289 289 290 290 290 291 291 291 291 291 291 291 291 291 291 291 291 291 291 291 290 290 290 289 289 289 288 288 288 288 287 287 287 287 287 287 287
249 251 252 254 256 257 258 259 260 262 263 265 267 269 272 276 278 280 281 281 282 283 284 285 285 286 286 286 286 286 286 286 286 286 285 285 285 285 286 287 287 288 288 289 288 288 287 286 286 286 287 288 290 291 292 292 292 293 292 292 291 291 291 291 291 291 291 291 291 291 290 290 290 290 290 289 289 289 288 288 288 287 287 287 287 287
251 252 254 255 256 258 259 261 262 264 266 268 269 271 274 277 279 280 281 281 283 284 284 284 285 285 286 286 286 286 286 286 286 285 285 285 285 284 285 286 286 287 288 288 287 286 286 285 284 285 285 287 290 291 293 293 293 293 293 292 292 291 291 291 291 291 291 291 291 291 291 291 291 290 290 290 290 289 289 289 288 288 288 287 287 287
252 253 254 256 258 259 261 262 265 267 269 271 272 273 275 278 279 280 281 282 283 284 284 284 284 284 285 285 286 287 287 286 285 284 285 285 285 284 285 286 286 287 287 287 287 286 286 285 284 284 285 287 289 291 293 293 293 293 293 293 292 291 291 291 291 291 291 291 291 291 291 291 291 291 290 290 290 290 289 289 289 288 288 288 287 287
255 256 257 259 261 262 263 265 267 269 271 272 273 275 276 277 279 280 281 282 283 284 284 284 284 284 284 286 287 287 287 286 285 283 283 284 284 284 285 286 286 287 287 287 287 287 286 285 285 285 285 287 289 291 293 293 293 292 292 292 292 292 291 291 291 291 291 291 291 291 291 291 291 291 291 290 290 290 290 289 289 289 288 288 288 288
257 258 260 262 263 264 264 266 268 270 272 273 274 276 277 277 278 280 282 283 283 284 284 284 284 284 284 285 286 286 286 286 285 283 283 284 284 284 285 285 286 286 287 287 287 288 288 287 286 286 287 287 289 291 292 292 292 291 292 292 292 292 291 292 292 292 292 292 292 292 292 291 291 291 291 290 290 290 290 289 289 289 289 289 289 289
257 258 260 262 264 266 267 268 269 271 272 274 276 277 278 279 279 279 281 283 284 285 284 284 284 284 284 284 285 285 286 286 285 284 284 285 285 285 285 285 285 286 287 287 287 287 287 287 287 287 287 288 289 291 292 291 291 291 291 292 292 292 292 292 292 292 292 292 292 292 292 292 291 291 291 291 290 290 290 290 290 290 290 289 289 289
258 259 261 263 266 267 269 271 272 273 275 277 278 279 280 280 281 281 282 283 284 285 286 285 285 285 285 285 285 285 286 287 286 285 285 285 285 285 285 285 285 286 287 287 287 287 287 287 288 288 288 289 290 291 291 290 290 291 292 292 292 292 293 293 293 293 293 293 293 293 293 292 292 292 291 291 291 291 291 291 291 291 291 291 290 290
259 261 263 265 267 269 271 273 275 276 278 280 281 282 283 283 283 283 283 284 284 285 287 286 285 285 285 285 285 286 286 286 286 284 284 285 285 285 285 285 285 285 286 287 288 288 288 288 288 289 289 290 291 291 291 290 291 292 293 293 292 292 293 293 293 293 293 293 293 293 293 293 292 292 292 292 291 291 291 292 292 292 292 292 292 292
259 261 264 266 268 271 273 275 277 279 280 282 283 283 284 284 284 285 285 285 285 285 285 286 286 286 285 285 285 285 285 285 285 284 283 284 284 284 284 284 284 285 285 286 287 287 288 288 288 289 290 291 292 292 291 291 292 293 293 293 293 292 292 293 293 292 293 293 293 293 293 293 293 293 292 292 292 292 292 292 293 292 293 293 293 293
260 262 265 267 269 272 274 276 278 280 281 282 283 283 284 284 284 285 285 286 286 285 285 285 285 285 285 285 284 284 284 284 284 283 282 283 283 284 284 284 284 285 285 285 286 287 287 288 289 290 291 292 292 293 292 292 293 293 293 293 293 292 292 292 292 292 292 292 292 292 292 292 293 293 293 292 293 293 293 293 293 293 293 293 294 295
263 265 267 269 271 273 275 277 279 280 281 282 283 283 284 284 285 286 286 286 286 286 285 285 284 284 284 284 284 284 284 284 283 282 282 282 283 283 283 284 284 284 284 285 286 286 287 288 290 291 291 291 292 292 293 294 294 294 293 292 292 292 292 292 292 292 292 291 291 291 292 292 292 293 293 293 293 293 293 293 293 293 294 294 295 295
266 268 270 272 273 275 277 279 280 281 282 283 284 285 286 286 287 287 287 287 286 286 285 285 284 284 284 284 283 283 283 283 282 281 282 282 282 282 283 283 283 283 284 284 285 286 287 288 290 291 292 292 292 293 294 295 295 295 293 292 292 292 292 292 292 292 291 291 291 291 292 292 293 293 294 294 294 294 294 294 294 294 295 295 296 296
268 270 272 274 275 277 278 280 281 283 284 285 286 287 288 288 288 288 288 288 287 286 286 285 285 284 284 284 283 283 283 282 281 281 281 281 281 282 282 283 283 283 283 284 285 286 287 288 289 290 291 292 293 293 294 295 295 295 294 293 292 292 292 292 292 292 291 291 291 291 292 293 293 294 294 294 295 295 294 294 295 295 296 296 297 297
269 271 273 275 276 278 279 281 283 284 286 287 288 289 289 290 290 290 290 289 288 288 287 286 285 285 284 284 284 283 283 282 282 281 281 280 280 281 281 282 282 282 283 284 285 285 286 287 288 289 290 291 293 293 294 294 294 294 294 294 293 292 291 291 291 291 291 291 291 291 292 293 294 294 294 294 295 295 295 295 295 296 296 297 298 299
270 272 274 276 278 279 281 283 284 286 287 288 289 290 290 291 291 291 291 290 290 289 288 287 287 286 286 285 284 284 283 283 282 282 281 280 280 280 280 280 281 282 282 283 284 285 286 286 287 288 289 290 291 292 292 293 293 293 293 293 292 292 291 291 291 291 291 291 291 292 292 293 293 294 294 294 295 295 295 295 296 296 297 297 298 299
271 273 275 277 279 281 282 284 285 287 288 289 290 291 291 292 292 291 291 290 290 289 288 288 287 286 286 286 286 285 284 283 283 282 281 281 280 279 279 279 279 280 282 283 284 284 285 286 286 287 288 289 290 291 291 292 292 292 291 291 292 292 291 291 291 291 291 291 292 292 292 293 294 294 294 295 295 296 296 296 296 297 297 298 299 299
272 274 276 278 280 281 283 285 286 288 289 290 290 291 292 292 292 292 291 290 289 288 288 287 286 285 285 285 286 286 285 284 283 282 282 281 280 279 279 278 278 279 280 282 283 283 284 284 285 286 287 288 289 289 290 291 291 291 291 291 291 292 292 291 291 291 291 291 292 292 293 293 294 294 294 295 295 295 296 296 297 297 298 298 299 300
273 275 277 279 280 282 284 285 287 288 289 289 290 291 292 292 292 292 291 291 290 289 288 287 287 286 285 285 285 285 285 285 284 283 282 282 281 280 279 278 278 278 278 280 282 283 283 284 284 285 286 287 288 288 289 289 290 290 290 290 291 290 290 291 292 292 292 292 292 293 293 293 294 294 294 294 295 295 296 296 297 297 298 299 299 300
275 276 278 280 281 283 284 285 287 288 288 289 290 290 291 291 292 292 291 291 290 289 288 287 287 286 286 285 285 285 285 285 285 284 284 283 282 281 279 278 277 277 278 279 280 282 283 283 284 285 286 287 287 287 288 288 289 289 289 290 290 290 290 291 292 292 293 293 293 293 293 294 294 294 294 295 295 295 296 296 297 298 298 299 300 300
276 278 280 281 282 283 284 285 286 287 288 289 289 290 290 291 291 291 291 291 290 289 288 288 287 286 286 286 286 285 285 285 285 285 284 284 282 281 280 279 278 277 278 279 280 281 282 283 284 285 286 286 286 286 286 287 288 288 289 289 290 290 291 291 292 292 292 293 293 293 293 294 294 294 294 295 295 296 296 296 297 297 298 299 300 300
278 279 281 282 283 284 285 286 287 288 288 289 289 290 290 291 291 291 291 291 290 289 289 288 287 286 285 285 285 285 285 284 284 284 284 283 283 281 280 279 278 278 278 278 279 280 281 282 283 284 285 285 285 286 286 286 287 287 288 289 289 290 290 291 291 292 292 293 293 293 294 294 294 294 294 295 295 295 296 296 297 297 298 299 300 301
279 280 282 283 284 285 286 287 287 288 289 289 290 290 291 291 291 291 291 291 290 290 289 288 287 287 286 285 285 284 284 283 283 283 283 283 282 281 280 279 279 279 279 279 279 280 280 281 282 282 283 284 284 285 285 286 286 287 287 288 289 289 289 290 291 292 292 293 293 293 294 294 294 294 295 295 295 296 296 297 298 298 299 300 301 302
280 281 282 284 285 286 287 287 288 289 289 290 291 291 292 292 292 291 292 291 291 290 289 288 288 287 286 285 285 284 283 283 283 282 282 282 281 281 280 279 279 279 279 279 280 280 281 281 281 281 282 283 283 284 285 285 286 286 286 287 287 288 289 290 291 292 292 293 293 293 293 293 293 294 295 295 296 296 297 298 299 300 301 302 303 303
281 282 283 284 285 286 287 288 289 289 290 291 291 292 293 293 293 293 292 292 291 290 290 289 288 287 286 285 285 284 283 282 282 282 281 281 281 280 280 279 279 279 279 280 280 280 281 282 282 281 281 281 282 283 284 284 285 286 286 286 287 287 288 289 290 291 292 292 293 293 293 293 293 294 295 295 296 296 297 298 299 300 301 302 303 304
281 282 283 284 285 286 287 288 289 289 290 291 292 293 293 293 293 293 293 292 291 291 290 289 288 287 286 285 285 284 283 282 282 281 281 281 281 280 279 279 279 279 279 279 280 280 281 282 283 283 283 281 281 281 283 283 284 285 285 286 286 287 287 288 290 291 292 292 292 293 293 293 293 294 294 295 296 297 297 298 299 300 301 303 303 304